{"data":{"norad_id":45366,"epoch":"2026-09-19T21:54:13.707360Z","epoch_age_seconds":64980,"freshness":"FRESH","line1":"1 45366U 20019G   26262.91265865  .00039861  00000+0  90436-3 0  9997","line2":"2 45366  53.1510 336.4048 0002519  35.8702 324.2473 15.42693664359582","mean_motion":15.42693664,"eccentricity":0.0002519,"inclination_deg":53.151,"raan_deg":336.4048,"arg_perigee_deg":35.8702,"mean_anomaly_deg":324.2473,"bstar":0.00090436,"rev_number":35958,"period_min":93.343223843045,"perigee_km":436.44619926826,"apogee_km":439.88025132176,"semimajor_km":6816.300225295,"source":"CELESTRAK","updated_at":"2026-09-20T09:00:38.229802Z"}}